Location: Newark
(45.8667°N, 9.7333°E)
Time: 18:04:57
(UTC+00:00)

A-11 Canister half - Pass Details

Date: 21 January 2020
Orbit: 1517 x 1683 km, 47.2° (Epoch: 22 February)

Event Time Altitude Azimuth Distance (km) Brightness Sun altitude
Rises 02:17:35 0° 262° (W) 4,686 - -47.5°
Reaches altitude 10° 02:20:38 10° 263° (W) 3,693 - -47.0°
Maximum altitude 02:29:57 84° 353° (N) 1,528 - -45.5°
Exits shadow 02:33:00 49° 76° (ENE) 1,887 9.5 -45.0°
Drops below altitude 10° 02:39:17 10° 82° (E) 3,697 11.6 -43.9°
Sets 02:42:21 0° 84° (E) 4,693 12.3 -43.4°
